Location: Lafig�re
(44.4503°N, 4.0357°E)
Time: 13:56:28
(UTC+00:00)

ARGOS - Pass Details

Date: 28 January 2021
Orbit: 821 x 834 km, 98.4° (Epoch: 05 March)

Event Time Altitude Azimuth Distance (km) Brightness Sun altitude
Rises 20:02:15 0° 206° (SSW) 3,342 6.5 -34.7°
Reaches altitude 10° 20:05:14 10° 224° (SW) 2,417 5.9 -35.2°
Maximum altitude 20:09:02 20° 269° (W) 1,846 5.5 -35.9°
Drops below altitude 10° 20:12:52 10° 315° (NW) 2,435 6.1 -36.6°
Sets 20:15:55 0° 332° (NNW) 3,377 6.8 -37.1°
